Weather in Oran

Algeria     35°41′53″N   0°38′40″E
temp.,
°C
wind,
m/s
gust,
m/s
humid.,
%
clouds,
%
prec.,
mm/h
press.,
hPa
HPBL,
m
27 january, thu
thu2701:00+15se5947100 0.0 1026275
04:00+14sse51042100 0.0 1026386
07:00+12se4545100 0.0 1026214
10:00+13se584179 0.0 1027459
13:00+16se3442100 0.0 1026504
16:00+17ene67465 0.0 1024809
19:00+15ene610555 0.0 1025300
22:00+14e6105411 0.0 1026298
28 january, fri
fri2801:00+13ese444815 0.0 1026117
04:00+13ese454790 0.0 1026140
07:00+12ese4547100 0.0 1026179
10:00+13se4644100 0.0 1027226
13:00+16e454496 0.0 1027338
16:00+16ne67515 0.0 1026461
19:00+14ene710645 0.0 1027315
22:00+14ene58700 0.0 1028314
29 january, sat
sat2901:00+14ene35660 0.0 1028137
04:00+13ene46710 0.0 1028207
07:00+13e33510 0.0 1028114
10:00+14e34480 0.0 1029182
13:00+16ene45470 0.0 1029282
16:00+16ne67530 0.0 1028416
19:00+14ene69690 0.0 1028291
22:00+14ene47670 0.0 1029190
30 january, sun
sun3001:00+14e35520 0.0 102891
04:00+13e33420 0.0 102875
07:00+13ese33420 0.0 102795
10:00+14se33382 0.0 1027114
13:00+17ene33380 0.0 1026212
16:00+18ne44435 0.0 1024291
19:00+15ne45572 0.0 102475
22:00+15ene33600 0.0 102457
31 january, mon
mon3101:00+15wnw11580 0.0 102311
04:00+14w33700 0.0 102371
07:00+13sw3580100 0.0 1023151
10:00+14wsw5678100 0.0 1024303
13:00+16w4568100 0.0 1024419
16:00+15w456989 0.0 1023418
19:00+14wsw457654 0.0 1023200
22:00+13wsw45810 0.0 1024209